This is the latest recevied weather packets stored in our database for station/object LA5PPA-1. If no packets are shown the sender has not sent any weather packets the latest 10 day(s).
| Time | Temp. | Humidity | Pressure | Rain* | Wind** | Luminosity | Snow |
|---|---|---|---|---|---|---|---|
| 1778157111 | 7.78° C | 32% | 1021.1 hPa | 0 mm | - | - | - |
| 1778156811 | 7.78° C | 31% | 1021 hPa | 0 mm | - | - | - |
| 1778156511 | 7.78° C | 32% | 1021 hPa | 0 mm | - | - | - |
| 1778156211 | 7.22° C | 35% | 1021 hPa | 0 mm | - | - | - |
| 1778155911 | 6.67° C | 35% | 1021 hPa | 0 mm | - | - | - |
| 1778155611 | 6.67° C | 34% | 1021 hPa | 0 mm | - | - | - |
| 1778155311 | 6.67° C | 32% | 1021 hPa | 0 mm | - | - | - |
| 1778155011 | 7.22° C | 34% | 1020.9 hPa | 0 mm | - | - | - |
| 1778154711 | 7.22° C | 33% | 1021 hPa | 0 mm | - | - | - |
| 1778154411 | 7.78° C | 32% | 1021.1 hPa | 0 mm | - | - | - |
| 1778154111 | 7.78° C | 34% | 1021.1 hPa | 0 mm | - | - | - |
| 1778153811 | 7.22° C | 35% | 1021.1 hPa | 0 mm | - | - | - |
| 1778153511 | 6.67° C | 36% | 1020.9 hPa | 0 mm | - | - | - |
| 1778153211 | 6.11° C | 37% | 1021 hPa | 0 mm | - | - | - |
| 1778152911 | 5.56° C | 37% | 1021 hPa | 0 mm | - | - | - |
| 1778152611 | 6.11° C | 33% | 1021 hPa | 0 mm | - | - | - |
| 1778152311 | 6.11° C | 35% | 1020.9 hPa | 0 mm | - | - | - |
| 1778152011 | 6.11° C | 36% | 1021 hPa | 0 mm | - | - | - |
| 1778151711 | 5.56° C | 36% | 1020.9 hPa | 0 mm | - | - | - |
| 1778151411 | 5.56° C | 37% | 1020.9 hPa | 0 mm | - | - | - |
| 1778151111 | 5.56° C | 33% | 1020.9 hPa | 0 mm | - | - | - |
| 1778150811 | 6.11° C | 32% | 1020.9 hPa | 0 mm | - | - | - |
| 1778150511 | 6.11° C | 33% | 1020.8 hPa | 0 mm | - | - | - |
| 1778150211 | 6.11° C | 32% | 1020.8 hPa | 0 mm | - | - | - |
| 1778149911 | 6.11° C | 34% | 1020.8 hPa | 0 mm | - | - | - |
* Rain latest hour (hover to see other rain measurements)
** Current wind speed in m/s (hover to see current wind gust speed)